Погода в Зыкове

Россия / Кировская область     57°36′03″N   49°38′25″E
темп.,
°C
ветер,
м/с
пор.,
м/с
влажн.,
%
обл.,
%
осадки,
мм/ч
давл.,
гПа
погр.,
м
17 сентября, пт
пт1700:00+6сз4990100 0.1 1012736
03:00+5сз4990100 0.1 1012579
06:00+5сз499199 0.1 1013590
09:00+6сз567987 0.1 1013763
12:00+8сз566673 0.2 10131191
15:00+7сз5672100 0.6 1014960
18:00+5сз478796 0.3 1014373
21:00+4сз4790100 0.4 1014861
18 сентября, сб
сб1800:00+4ссз4797100 0.6 1015603
03:00+4ссз4894100 1.0 1015837
06:00+2ссз410945 0.1 1017377
09:00+6ссз58735 0.1 1018698
12:00+7ссз786778 0.2 10191316
15:00+5ссз5868100 0.3 10201268
18:00+4ссз4107762 0.1 1020690
21:00+2сз4119069 0.1 1022390
19 сентября, вс
вс1900:000сз410917 0.0 1022309
03:00−1сз39945 0.0 1023250
06:00−1сз38955 0.0 1024223
09:00+5ссз46677 0.0 1024744
12:00+8ссз455083 0.0 10241423
15:00+8с565081 0.0 10251374
18:00+3ссв376834 0.0 1026207
21:00+4ссв4656100 0.0 1027490
20 сентября, пн
пн2000:00+4ссв3556100 0.0 1027325
03:00+3ссв2457100 0.0 1028199
06:00+1ссв2566100 0.0 1029100
09:00+6св345234 0.0 10291141
12:00+8св334768 0.0 10291308
15:00+9св444578 0.0 10291327
18:00+4всв346616 0.0 102957
21:00+2всв41076100 0.0 1030266
21 сентября, вт
вт2100:00+1всв388539 0.0 1030193
03:000в379292 0.0 1030157
06:000всв379242 0.0 1030171
09:00+6в466221 0.0 1029627
12:00+9в455084 0.0 10271060
15:00+10вюв4549100 0.0 10251097
18:00+6в2468100 0.0 102556
21:00+4в3775100 0.0 1024148